Index of /observatory/weather/Observatory_weather

[ICO]NameLast modifiedSizeDescription

[DIR]Parent Directory  -  
[DIR]archive/21-Feb-2018 15:20 -  
[DIR]reports/14-Feb-2018 13:55 -  
[TXT]data.htm23-Sep-2018 09:05 348  
[TXT]Current_Conditions.htm23-Sep-2018 09:05 2.7K 
[IMG]EMC.gif23-Sep-2018 09:05 4.2K 
[IMG]WindSpeed.gif23-Sep-2018 09:05 4.2K 
[IMG]10MinAvgWindSpeed.gif23-Sep-2018 09:05 4.3K 
[IMG]THW.gif23-Sep-2018 09:05 4.4K 
[IMG]InsideDewPoint.gif23-Sep-2018 09:05 4.4K 
[IMG]InsideHeatIndex.gif23-Sep-2018 09:05 4.4K 
[IMG]MonthlyRain.gif23-Sep-2018 09:05 4.4K 
[IMG]WindChill.gif23-Sep-2018 09:05 4.4K 
[IMG]WindDirection.gif23-Sep-2018 09:05 4.5K 
[IMG]Rain.gif23-Sep-2018 09:05 4.5K 
[IMG]RainStorm.gif23-Sep-2018 09:05 4.5K 
[IMG]AirDensity.gif23-Sep-2018 09:05 4.9K 
[IMG]YearlyRain.gif23-Sep-2018 09:05 5.1K 
[IMG]DewPoint.gif23-Sep-2018 09:05 5.2K 
[IMG]HeatIndex.gif23-Sep-2018 09:05 5.3K 
[IMG]OutsideTemp.gif23-Sep-2018 09:05 5.4K 
[IMG]InsideTemp.gif23-Sep-2018 09:05 5.4K 
[IMG]InsideHumidity.gif23-Sep-2018 09:05 5.5K 
[IMG]OutsideHumidity.gif23-Sep-2018 09:05 5.5K 
[IMG]Barometer.gif23-Sep-2018 09:05 5.7K 
[IMG]RainRate.gif23-Sep-2018 09:05 5.8K 
[TXT]Tag-List.htm23-Sep-2018 09:05 8.4K 
[IMG]RainRateHistory.gif23-Sep-2018 09:05 8.7K 
[IMG]RainHistory.gif23-Sep-2018 09:05 8.9K 
[IMG]BarometerHistory.gif23-Sep-2018 09:05 9.0K 
[IMG]InsideDewPointHistory.gif23-Sep-2018 09:05 9.5K 
[IMG]HeatIndexHistory.gif23-Sep-2018 09:05 9.7K 
[IMG]WindChillHistory.gif23-Sep-2018 09:05 9.7K 
[IMG]OutsideTempHistory.gif23-Sep-2018 09:05 9.7K 
[IMG]InsideHeatIndexHistory.gif23-Sep-2018 09:05 9.8K 
[IMG]WindDirectionHistory.gif23-Sep-2018 09:05 9.8K 
[IMG]InsideTempHistory.gif23-Sep-2018 09:05 10K 
[IMG]InsideHumidityHistory.gif23-Sep-2018 09:05 10K 
[IMG]OutsideHumidityHistory.gif23-Sep-2018 09:05 10K 
[IMG]DewPointHistory.gif23-Sep-2018 09:05 10K 
[TXT]Monthly_Vantage_Pro.htm23-Sep-2018 09:05 11K 
[IMG]HiWindSpeedHistory.gif23-Sep-2018 09:05 12K 
[IMG]WindSpeedHistory.gif23-Sep-2018 09:05 12K 
[TXT]Current_Vantage_Pro.htm23-Sep-2018 09:05 13K 
[IMG]ReceptionHistory.gif23-Sep-2018 09:05 13K 
[TXT]Observatory_weather.htm23-Sep-2018 09:05 18K 
[IMG]SchPhyAst_colour.jpg12-Sep-2013 17:33 24K 
[IMG]quicklook_data_0.1h.png14-Dec-2017 17:15 38K 
[IMG]quicklook_data_1h.png14-Dec-2017 17:08 39K 
[IMG]quicklook_data_12h.png23-Sep-2018 03:12 65K 
[IMG]quicklook_data_2h.png23-Sep-2018 03:12 71K 
[IMG]test.png24-Nov-2017 13:58 77K 
[IMG]quicklook_data_96h.png23-Sep-2018 03:12 115K 
[IMG]quicklook_data_48h.png23-Sep-2018 03:12 117K 
[TXT]201707.txt21-Feb-2018 15:01 183K 
[TXT]radiation2012.txt23-Sep-2018 09:05 221K 
[IMG]DCAMImage.jpg24-Jul-2018 13:16 249K 
[IMG]obs_rollover.jpg29-Aug-2018 13:30 343K 
[TXT]201706.txt21-Feb-2018 15:10 351K 
[TXT]201705.txt21-Feb-2018 15:10 1.1M 
[TXT]radiation.txt24-Aug-2013 15:40 1.6M 
[   ]obs_rollover.xcf29-Aug-2018 13:34 4.5M 
[VID]movie.avi13-Jul-2018 00:01 6.2M 
[TXT]2015.txt13-Mar-2018 12:42 11M 

Apache/2.2.14 (Ubuntu) Server at www.astro.gla.ac.uk Port 80